Rochester, NY

3:17 PM EST on November 22, 2019 (GMT -0500)
Greater Rochester International

Weather History for KROC - October, 2019

Change the Weather History Date:

Monday, October 21, 2019

  Actual Average Record
Temperature  
Mean Temperature 53 °F 49 °F  
Max Temperature 66 °F 58 °F 80 °F (1884)
Min Temperature 39 °F 40 °F 21 °F (1974)
Degree Days  
Heating Degree Days 12 16  
Month to date heating degree days 251 273  
Since 1 July heating degree days 315 454  
Cooling Degree Days 0 0  
Month to date cooling degree days 13 0  
Year to date cooling degree days 621 534  
Growing Degree Days 3 (Base 50)    
Moisture  
Dew Point 43 °F    
Average Humidity 71    
Maximum Humidity 93    
Minimum Humidity 44    
Precipitation  
Precipitation 0.00 in 0.08 in 2.53 in (2016)
Month to date precipitation 2.45 1.86  
Year to date precipitation 26.31 27.84  
Snow  
Snow 0.00 in 0.00 in T in (2018)
Month to date snowfall 0.0 0.0  
Since 1 July snowfall 0.0 0.0  
Since 1 September snowfall 0.0 0.0  
Snow Depth 0.00 in    
Sea Level Pressure  
Sea Level Pressure 30.05 in    
Wind  
Wind Speed 5 mph ()    
Max Wind Speed 22 mph    
Max Gust Speed 29 mph    
Visibility 9.5 miles    
Events Fog    
T = Trace of Precipitation, MM = Missing Value Source: Averaged Metar Reports

Daily Weather History Graph

Daily Weather History Graph

Search for Another Location

Airport or City:

Astronomy

Oct. 21, 2019 Rise Set
Actual Time 7:31 AM EDT 6:18 PM EDT
Civil Twilight 7:02 AM EDT 6:47 PM EDT
Nautical Twilight 6:29 AM EDT 7:20 PM EDT
Astronomical Twilight 5:56 AM EDT 7:53 PM EDT
Moon No Moon Rise 2:53 PM EDT (10/21)
Length of Visible Light 11h 45m
Length of Day
10h 47m
Waning Gibbous, 48% of the Moon is Illuminated
Oct 21
Waning Gibbous
Oct 27
New
Nov 4
First Quarter
Nov 12
Full
Nov 19
Last Quarter

Hourly Weather History & Observations

Time (EDT) Temp. Windchill Dew Point Humidity Pressure Visibility Wind Dir Wind Speed Gust Speed Precip Events Conditions
12:54 AM 44.1 °F 42.5 °F 41.0 °F 89% 30.03 in 9.0 mi WSW 3.5 mph - N/A   Clear
1:54 AM 42.1 °F 40.2 °F 39.9 °F 92% 30.04 in 7.0 mi SW 3.5 mph - N/A   Clear
2:54 AM 42.1 °F - 39.0 °F 89% 30.05 in 10.0 mi Calm Calm - N/A   Clear
3:54 AM 42.1 °F - 39.9 °F 92% 30.06 in 10.0 mi Calm Calm - N/A   Clear
4:54 AM 41.0 °F - 39.0 °F 93% 30.08 in 6.0 mi Calm Calm - N/A   Clear
5:54 AM 39.9 °F 37.8 °F 37.0 °F 89% 30.10 in 10.0 mi SW 3.5 mph - N/A   Clear
6:54 AM 41.0 °F - 39.0 °F 93% 30.11 in 9.0 mi Calm Calm - N/A   Partly Cloudy
7:54 AM 39.9 °F - 37.9 °F 93% 30.11 in 8.0 mi Calm Calm - N/A Fog Shallow Fog
8:54 AM 45.0 °F - 43.0 °F 93% 30.13 in 10.0 mi Calm Calm - N/A   Partly Cloudy
9:54 AM 50.0 °F - 46.0 °F 86% 30.12 in 10.0 mi Calm Calm - N/A   Partly Cloudy
10:54 AM 57.9 °F - 48.9 °F 72% 30.11 in 10.0 mi East 9.2 mph - N/A   Mostly Cloudy
11:54 AM 61.0 °F - 48.9 °F 64% 30.10 in 10.0 mi SE 10.4 mph - N/A   Mostly Cloudy
12:54 PM 63.0 °F - 46.9 °F 56% 30.07 in 10.0 mi SE 12.7 mph - N/A   Mostly Cloudy
1:54 PM 64.9 °F - 45.0 °F 48% 30.05 in 10.0 mi SE 9.2 mph - N/A   Mostly Cloudy
2:54 PM 66.9 °F - 44.1 °F 44% 30.02 in 10.0 mi ESE 11.5 mph - N/A   Scattered Clouds
3:54 PM 66.9 °F - 45.0 °F 45% 30.00 in 10.0 mi ESE 16.1 mph - N/A   Partly Cloudy
4:54 PM 66.0 °F - 46.0 °F 48% 30.00 in 10.0 mi ESE 13.8 mph - N/A   Scattered Clouds
5:54 PM 63.0 °F - 45.0 °F 52% 29.99 in 10.0 mi ESE 11.5 mph - N/A   Mostly Cloudy
6:54 PM 62.1 °F - 45.0 °F 53% 30.00 in 10.0 mi ESE 9.2 mph - N/A   Overcast
7:54 PM 60.1 °F - 46.9 °F 62% 29.97 in 10.0 mi ESE 15.0 mph - N/A   Overcast
8:54 PM 61.0 °F - 45.0 °F 56% 29.95 in 10.0 mi SE 10.4 mph - N/A   Mostly Cloudy
9:54 PM 60.1 °F - 46.0 °F 60% 29.92 in 10.0 mi SE 8.1 mph - N/A   Mostly Cloudy